Regional Weather Roundup
Issued by NWS Green Bay, WI

Home | Current Version | Previous Version | Graphics & Text | Print | Product List | Glossary Off
Versions: 1 2 3 4 5 6 7 8 9 10 11 12 13 14 15 16 17 18 19 20 21 22 23 24 25 26 27 28 29 30 31 32 33 34 35 36 37 38 39 40 41 42 43 44 45 46 47 48 49 50

000
ASUS43 KGRB 270600
RWRGRB

NORTH-CENTRAL AND NORTHEAST WISCONSIN REGIONAL WEATHER ROUNDUP
NATIONAL WEATHER SERVICE GREEN BAY WI
100 AM CDT SAT AUG 27 2016

WIZ005-009-010>012-018-019-270700-
NORTH CENTRAL WISCONSIN

CITY           SKY/WX    TMP DP  RH WIND       PRES   REMARKS
IRONWOOD       FAIR      51  50  96 CALM      30.16F
MANITOWISH WTR NOT AVBL
ARBOR VITAE    NOT AVBL
EAGLE RIVER    NOT AVBL
LAND O LAKES   NOT AVBL
RHINELANDER    FAIR      56  56 100 CALM      30.17F
PHILLIPS       FAIR      54  53  99 CALM      30.16S
ANTIGO         NOT AVBL
TOMAHAWK       NOT AVBL
MERRILL        FAIR      57  56  99 CALM      30.17S
$$

WIZ013-073-270700-
NORTHEAST WISCONSIN

CITY           SKY/WX    TMP DP  RH WIND       PRES   REMARKS
IRON MOUNTAIN  FAIR      57  53  86 CALM      30.16F
MARINETTE      MOCLDY   N/A N/A N/A N3        30.15F
$$

WIZ017-030-035>037-045-270700-
CENTRAL WISCONSIN

CITY           SKY/WX    TMP DP  RH WIND       PRES   REMARKS
MEDFORD        NOT AVBL
WAUSAU         FAIR      60  57  89 E3        30.14F
MOSINEE        NOT AVBL
MARSHFIELD     LGT RAIN  61  57  87 CALM      30.15S
WISC RAPIDS    LGT RAIN  61  60  97 CALM      30.17R
STEVENS POINT  NOT AVBL
WAUPACA        NOT AVBL
SHAWANO        NOT AVBL
CLINTONVILLE   FAIR      61  59  94 CALM      30.15S
WAUTOMA        LGT RAIN  63  61  93 CALM      30.15S
$$

WIZ038-039-048-051-270700-
FOX VALLEY

CITY           SKY/WX    TMP DP  RH WIND       PRES   REMARKS
NWS GREEN BAY  CLOUDY    62  62 100 CALM      30.15S
APPLETON       NOT AVBL
OSHKOSH        CLOUDY    65  59  81 S3        30.15R
FOND DU LAC    CLOUDY    64  60  87 CALM      30.15R
$$

WIZ022-050-052-270700-
EAST CENTRAL WISCONSIN

CITY           SKY/WX    TMP DP  RH WIND       PRES   REMARKS
EPHRAIM        NOT AVBL
WASHINGTON ISL NOT AVBL
STURGEON BAY   CLOUDY    63  59  87 SW3       30.16S
MANITOWOC      NOT AVBL
SHEBOYGAN      CLOUDY    63  59  87 CALM      30.15S
$$

LMZ563-521-522-541>543-270700-
LAKESHORE

STATION/POSITION TIME  TEMP    WIND        PRES    VSBY  WAVE
                       AIR SEA DIR/SP/G                  HT/PER
                 (UTC) (F)     (DEG/KT/KT) (MB)    (MI)  (FT/S)
SHEBOYGAN LKSHOR 0500   65      CALM  /  1 1020.6S
KEWAUNEE LKSHORE 0500   63     360/  1/  2 1020.2F
NORTHPORT PIER   0500   64     220/  3/  4 1020.7S
N MID LAKE BUOY  0450   68 71   50/  4/  6 1020.7R         1
S GREEN BAY BUOY 0530   68 72  300/  4/  6 1020.2F
SISTER BAY LKSHO 0507   67        CALM       N/A
CHAMBERS ISLAND  0500   63     230/  2/  2 1020.7S
MENOMINEE LKSHOR 0500   66     320/  5/  5 1020.0S
$$



USA.gov is the U.S. government's official web portal to all federal, state and local government web resources and services.